Regional Weather Roundup
Issued by NWS Bismarck, ND

Home | Current Version | Previous Version | Text Only | Print | Product List | Glossary On
Versions: 1 2 3 4 5 6 7 8 9 10 11 12 13 14 15 16 17 18 19 20 21 22 23 24 25 26 27 28 29 30 31 32 33 34 35 36 37 38 39 40 41 42 43 44 45 46 47 48 49 50
000
ASUS43 KBIS 270820
RWRBIS

NWR BROADCAST TEXT
NATIONAL WEATHER SERVICE BISMARCK ND
300 AM CDT WED AUG 27 2014

NOTE: "FAIR" INDICATES FEW OR NO CLOUDS BELOW 12,000 FEET WITH NO
SIGNIFICANT WEATHER AND/OR OBSTRUCTIONS TO VISIBILITY.


CITY           SKY/WX    TMP DP  RH WIND       PRES   REMARKS
WILLISTON      CLEAR     55  51  86 S3        30.12F
MINOT          CLEAR     55  51  86 S8        30.14S
MINOT AFB      CLEAR     51  51  99 SW7       30.13F
BISMARCK       CLEAR     53  52  96 NE3       30.18F
DICKINSON      CLEAR     50  49  96 S8        30.15S
GARRISON         N/A     52  51  97 SW3       30.16F
HETTINGER ARPT FOG       48  46  93 CALM      30.18S VSB 1/4
JAMESTOWN      FOG       49  48  97 CALM      30.19R VSB 1/2
BEACH            N/A     52  52 100 SE6       30.15S
CARRINGTON     FAIR      48  48 100 SW8       30.19S FOG
CROSBY         FAIR      54  54 100 S12       30.11S
HARVEY         FAIR      46  46 100 S3        30.17F FOG
HAZEN          FAIR      43  43 100 CALM      30.18S
LINTON         FAIR      50  50 100 E5        30.17F
MANDAN         FOG       50  50 100 NE5       30.19S VSB 1/4
OAKES            N/A     57  57 100 E5        30.18F
RUGBY          FAIR      50  50 100 CALM      30.16S
STANLEY        FAIR      50  50 100 S7        30.15S
TIOGA          FAIR      52  52 100 S3        30.17S
WATFORD CITY   FAIR      50  50 100 CALM      30.12S
$$

CITY           SKY/WX    TMP DP  RH WIND       PRES   REMARKS
GRAND FORKS    CLEAR     51  50  96 SW3       30.16S
GRAND FORKS AF CLEAR     51  51 100 W6        30.16F
DEVILS LAKE    CLEAR     57  50  77 SW7       30.15F
FARGO          FOG       53  52  96 CALM      30.19S VSB 1
CANDO          FAIR      48  46  93 W3        30.17S
CAVALIER       FAIR      46  46 100 S5        30.15S
GRAFTON        FAIR      50  50 100 W5        30.16R
GWINNER        CLOUDY    57  57 100 E5        30.20S
LANGDON        FAIR      41  41 100 SW3       30.16S
ROLLA          FAIR      48  48 100 SW8       30.17S
WALHALLA       FAIR      46  46 100 CALM      30.15S
$$

CITY           SKY/WX    TMP DP  RH WIND       PRES   REMARKS
ABERDEEN       CLOUDY    58  56  93 E5        30.17F
MOBRIDGE       CLEAR     54  52  93 CALM      30.14F
BUFFALO          N/A     52  50  93 NE6       30.10F
RAPID CITY     MOCLDY    59  53  80 E5        30.16S
GLASGOW        CLEAR     54  50  86 E12       30.06S
SIDNEY         CLEAR     52  50  93 S6        30.13S
WOLF POINT     CLEAR     53  48  83 E3        30.09S
GLENDIVE       CLEAR     55  52  88 CALM      30.13S
MILES CITY     CLEAR     57  50  77 SE8       30.10F
BAKER          CLEAR     53  52  96 SE7       30.15F
$$

CITY           SKY/WX    TMP DP  RH WIND       PRES   REMARKS
BILLINGS       CLEAR     65  49  56 S7        30.11S
GREAT FALLS    CLEAR     56  43  61 S7        30.07S
REGINA         CLEAR     52  48  87 SE10      30.04S
ESTEVAN        PTCLDY    50  48  93 S6        30.11S
$$




USA.gov is the U.S. government's official web portal to all federal, state and local government web resources and services.